Location: Izdebno
(52.6670°N, 16.2170°E)
Time: 19:13:06
(UTC+02:00)

SR - Pass Details

Date: 04 March 2024
Orbit: 577 x 862 km, 66.7° (Epoch: 20 April)

Event Time Altitude Azimuth Distance (km) Brightness Sun altitude
Rises 19:25:33 0° 316° (NW) 3,301 ? -16.7°
Reaches altitude 10° 19:28:25 10° 329° (NNW) 2,320 ? -17.1°
Maximum altitude 19:32:54 27° 27° (NNE) 1,381 ? -17.8°
Enters shadow 19:34:36 23° 58° (ENE) 1,519 ? -18.0°
